Location: Moondance
(40.1328°N, 106.5113°W)
Time: 11:02:28
(UTC-07:00)

OTV 5 (USA 277) - Visible Passes

Search period start: 18 February 2019 00:00
Search period end: 28 February 2019 00:00
Orbit: 342 x 346 km, 54.5° (Epoch: 17 February)

Date Brightness Start Highest point End Pass type
(mag) Time Alt. Az. Time Alt. Az. Time Alt. Az.
18 Feb ? 05:37:30 12° SSW 05:37:30 12° SSW 05:37:58 10° SSW visible
22 Feb ? 18:49:45 10° S 18:51:57 20° SE 18:52:09 20° ESE visible
23 Feb ? 19:12:35 10° SW 19:15:26 79° SE 19:15:47 64° ENE visible
24 Feb ? 19:36:35 10° W 19:39:09 29° NW 19:39:16 29° NNW visible
25 Feb ? 18:25:01 10° SW 18:27:52 75° SE 18:30:44 10° NE visible
25 Feb ? 20:01:38 10° WNW 20:02:37 13° NW 20:02:37 13° NW visible
26 Feb ? 18:48:59 10° W 18:51:34 30° NW 18:54:11 10° NNE visible
27 Feb ? 19:13:58 10° WNW 19:15:31 13° NNW 19:17:05 10° N visible
